| time (UTC) | temp F | wind direction | speed MPH | gust MPH | rain 1hr in | rain 24hr in | rain mn in | humidity % | barometer mb |
| 20260507093052 | 37 | 360 | 4.0 | 6.0 | 0.00 | 0.00 | 0.00 | 39 | 998.5 |
| 20260507092556 | 38 | 360 | 4.0 | 6.0 | 0.00 | 0.00 | 0.00 | 39 | 998.5 |
| 20260507092056 | 38 | 360 | 4.0 | 5.0 | 0.00 | 0.00 | 0.00 | 38 | 998.5 |
| 20260507091553 | 38 | 360 | 3.0 | 4.0 | 0.00 | 0.00 | 0.00 | 38 | 998.5 |
| 20260507091052 | 38 | 360 | 1.0 | 3.0 | 0.00 | 0.00 | 0.00 | 38 | 998.6 |
| 20260507090552 | 38 | 360 | 2.0 | 3.0 | 0.00 | 0.00 | 0.00 | 38 | 998.7 |
| 20260507090051 | 38 | 360 | 2.0 | 5.0 | 0.00 | 0.00 | 0.00 | 38 | 998.7 |
| 20260507085551 | 37 | 360 | 3.0 | 6.0 | 0.00 | 0.00 | 0.00 | 39 | 998.8 |
| 20260507085052 | 38 | 360 | 4.0 | 6.0 | 0.00 | 0.00 | 0.00 | 38 | 998.7 |
| 20260507084652 | 38 | 360 | 5.0 | 6.0 | 0.00 | 0.00 | 0.00 | 38 | 998.7 |
| 20260507084050 | 38 | 360 | 5.0 | 6.0 | 0.00 | 0.00 | 0.00 | 38 | 998.6 |
| 20260507083551 | 38 | 360 | 5.0 | 6.0 | 0.00 | 0.00 | 0.00 | 39 | 998.5 |
| 20260507083050 | 37 | 360 | 4.0 | 6.0 | 0.00 | 0.00 | 0.00 | 39 | 998.6 |
| 20260507082550 | 37 | 360 | 4.0 | 6.0 | 0.00 | 0.00 | 0.00 | 40 | 998.5 |
| 20260507082049 | 37 | 360 | 4.0 | 6.0 | 0.00 | 0.00 | 0.00 | 40 | 998.7 |
| 20260507081549 | 37 | 360 | 4.0 | 7.0 | 0.00 | 0.00 | 0.00 | 40 | 998.6 |
| 20260507081051 | 37 | 360 | 6.0 | 7.0 | 0.00 | 0.00 | 0.00 | 40 | 998.7 |
| 20260507080549 | 37 | 360 | 6.0 | 7.0 | 0.00 | 0.00 | 0.00 | 40 | 998.7 |
| 20260507080048 | 37 | 360 | 5.0 | 7.0 | 0.00 | 0.00 | 0.00 | 39 | 998.7 |
| 20260507075548 | 38 | 360 | 5.0 | 6.0 | 0.00 | 0.00 | 0.00 | 39 | 998.7 |
| 20260507075048 | 39 | 360 | 5.0 | 6.0 | 0.00 | 0.00 | 0.00 | 38 | 998.7 |
| 20260507074648 | 38 | 360 | 4.0 | 6.0 | 0.00 | 0.00 | 0.00 | 38 | 998.8 |
| 20260507074049 | 38 | 360 | 5.0 | 6.0 | 0.00 | 0.00 | 0.00 | 39 | 998.9 |
| 20260507073549 | 38 | 360 | 5.0 | 6.0 | 0.00 | 0.00 | 0.00 | 39 | 998.7 |
| 20260507073101 | 38 | 360 | 4.0 | 6.0 | 0.00 | 0.00 | 0.00 | 38 | 998.7 |
| 20260507072549 | 38 | 360 | 5.0 | 7.0 | 0.00 | 0.00 | 0.00 | 38 | 998.7 |
| 20260507072049 | 38 | 360 | 5.0 | 7.0 | 0.00 | 0.00 | 0.00 | 38 | 998.5 |
| 20260507071548 | 39 | 360 | 6.0 | 7.0 | 0.00 | 0.00 | 0.00 | 38 | 998.4 |
| 20260507071048 | 39 | 360 | 6.0 | 7.0 | 0.00 | 0.00 | 0.00 | 37 | 998.5 |
| 20260507070548 | 39 | 360 | 5.0 | 6.0 | 0.00 | 0.00 | 0.00 | 37 | 998.6 |
| 20260507070056 | 38 | 360 | 2.0 | 4.0 | 0.00 | 0.00 | 0.00 | 38 | 998.5 |
| 20260507065549 | 38 | 360 | 0.0 | 2.0 | 0.00 | 0.00 | 0.00 | 39 | 998.6 |
| 20260507065046 | 37 | 360 | 0.0 | 10.0 | 0.00 | 0.00 | 0.00 | 39 | 998.6 |
| 20260507064646 | 38 | 360 | 3.0 | 10.0 | 0.00 | 0.00 | 0.00 | 39 | 998.6 |
| 20260507064046 | 37 | 360 | 2.0 | 4.0 | 0.00 | 0.00 | 0.00 | 39 | 998.5 |
| 20260507063546 | 37 | 360 | 0.0 | 9.0 | 0.00 | 0.00 | 0.00 | 40 | 998.6 |
| 20260507063044 | 37 | 360 | 4.0 | 9.0 | 0.00 | 0.00 | 0.00 | 39 | 998.6 |
| 20260507062544 | 39 | 360 | 6.0 | 8.0 | 0.00 | 0.00 | 0.00 | 38 | 998.5 |
| 20260507062044 | 38 | 360 | 6.0 | 8.0 | 0.00 | 0.00 | 0.00 | 38 | 998.4 |
| 20260507061544 | 38 | 360 | 7.0 | 8.0 | 0.00 | 0.00 | 0.00 | 37 | 998.4 |
| 20260507061044 | 38 | 360 | 6.0 | 8.0 | 0.00 | 0.00 | 0.00 | 37 | 998.4 |
| 20260507060542 | 38 | 360 | 6.0 | 7.0 | 0.00 | 0.00 | 0.00 | 37 | 998.5 |
| 20260507060042 | 38 | 360 | 5.0 | 6.0 | 0.00 | 0.00 | 0.00 | 37 | 998.5 |
| 20260507055543 | 38 | 360 | 4.0 | 5.0 | 0.00 | 0.00 | 0.00 | 37 | 998.6 |
| 20260507055041 | 38 | 360 | 4.0 | 5.0 | 0.00 | 0.00 | 0.00 | 37 | 998.6 |
| 20260507054642 | 38 | 360 | 4.0 | 5.0 | 0.00 | 0.00 | 0.00 | 37 | 998.6 |
| 20260507054041 | 37 | 360 | 4.0 | 5.0 | 0.00 | 0.00 | 0.00 | 38 | 998.7 |
| 20260507053541 | 37 | 360 | 4.0 | 5.0 | 0.00 | 0.00 | 0.00 | 38 | 998.7 |
| 20260507053040 | 37 | 360 | 3.0 | 5.0 | 0.00 | 0.00 | 0.00 | 38 | 998.7 |
| 20260507052540 | 37 | 360 | 3.0 | 5.0 | 0.00 | 0.00 | 0.00 | 38 | 998.8 |
| 20260507052039 | 37 | 360 | 4.0 | 6.0 | 0.00 | 0.00 | 0.00 | 38 | 998.8 |
| 20260507051539 | 37 | 360 | 5.0 | 6.0 | 0.00 | 0.00 | 0.00 | 38 | 999.0 |
| 20260507051037 | 37 | 360 | 4.0 | 11.0 | 0.00 | 0.00 | 0.00 | 38 | 998.9 |
| 20260507050536 | 38 | 360 | 6.0 | 11.0 | 0.00 | 0.00 | 0.00 | 37 | 999.0 |
| 20260507050037 | 38 | 360 | 4.0 | 7.0 | 0.00 | 0.00 | 0.00 | 36 | 998.8 |
| 20260507045536 | 39 | 360 | 6.0 | 7.0 | 0.00 | 0.00 | 0.00 | 36 | 998.7 |
| 20260507045035 | 39 | 360 | 5.0 | 7.0 | 0.00 | 0.00 | 0.00 | 36 | 998.7 |
| 20260507044547 | 38 | 360 | 6.0 | 7.0 | 0.00 | 0.00 | 0.00 | 36 | 998.9 |
| 20260507044036 | 39 | 360 | 6.0 | 7.0 | 0.00 | 0.00 | 0.00 | 36 | 998.9 |
| 20260507043533 | 40 | 360 | 5.0 | 7.0 | 0.00 | 0.00 | 0.00 | 34 | 999.0 |
| 20260507043034 | 41 | 360 | 5.0 | 7.0 | 0.00 | 0.00 | 0.00 | 34 | 999.0 |
| 20260507042533 | 40 | 360 | 5.0 | 7.0 | 0.00 | 0.00 | 0.00 | 34 | 999.1 |
| 20260507042033 | 40 | 360 | 6.0 | 7.0 | 0.00 | 0.00 | 0.00 | 35 | 999.1 |
| 20260507041532 | 40 | 360 | 6.0 | 7.0 | 0.00 | 0.00 | 0.00 | 35 | 999.1 |
| 20260507041030 | 41 | 360 | 5.0 | 9.0 | 0.00 | 0.00 | 0.00 | 33 | 999.0 |
| 20260507040531 | 43 | 360 | 6.0 | 9.0 | 0.00 | 0.00 | 0.00 | 32 | 999.1 |
| 20260507040033 | 43 | 360 | 6.0 | 7.0 | 0.00 | 0.00 | 0.00 | 31 | 999.1 |
| 20260507035534 | 43 | 360 | 6.0 | 7.0 | 0.00 | 0.00 | 0.00 | 32 | 999.1 |
| 20260507035029 | 42 | 360 | 5.0 | 7.0 | 0.00 | 0.00 | 0.00 | 33 | 999.2 |
| 20260507034629 | 41 | 360 | 6.0 | 8.0 | 0.00 | 0.00 | 0.00 | 33 | 999.1 |
| 20260507034027 | 42 | 360 | 6.0 | 8.0 | 0.00 | 0.00 | 0.00 | 32 | 999.1 |
| 20260507033526 | 43 | 360 | 6.0 | 8.0 | 0.00 | 0.00 | 0.00 | 31 | 999.2 |
| 20260507033032 | 44 | 360 | 6.0 | 7.0 | 0.00 | 0.00 | 0.00 | 31 | 999.2 |
| 20260507032524 | 44 | 360 | 6.0 | 7.0 | 0.00 | 0.00 | 0.00 | 30 | 999.3 |
| 20260507032029 | 44 | 360 | 6.0 | 7.0 | 0.00 | 0.00 | 0.00 | 30 | 999.4 |
| 20260507031532 | 44 | 360 | 6.0 | 7.0 | 0.00 | 0.00 | 0.00 | 30 | 999.4 |
| 20260507031024 | 44 | 360 | 5.0 | 7.0 | 0.00 | 0.00 | 0.00 | 31 | 999.4 |
| 20260507030525 | 45 | 360 | 6.0 | 7.0 | 0.00 | 0.00 | 0.00 | 30 | 999.5 |
| 20260507030022 | 45 | 360 | 5.0 | 7.0 | 0.00 | 0.00 | 0.00 | 30 | 999.5 |
| 20260507025520 | 45 | 360 | 6.0 | 7.0 | 0.00 | 0.00 | 0.00 | 29 | 999.4 |
| 20260507025023 | 45 | 360 | 6.0 | 7.0 | 0.00 | 0.00 | 0.00 | 29 | 999.6 |
| 20260507024622 | 45 | 360 | 6.0 | 7.0 | 0.00 | 0.00 | 0.00 | 29 | 999.4 |
| 20260507024025 | 45 | 360 | 6.0 | 7.0 | 0.00 | 0.00 | 0.00 | 29 | 999.4 |
| 20260507023522 | 45 | 360 | 6.0 | 7.0 | 0.00 | 0.00 | 0.00 | 29 | 999.5 |
| 20260507023021 | 45 | 360 | 6.0 | 7.0 | 0.00 | 0.00 | 0.00 | 29 | 999.5 |
| 20260507022521 | 45 | 360 | 6.0 | 7.0 | 0.00 | 0.00 | 0.00 | 29 | 999.5 |
| 20260507022021 | 45 | 360 | 6.0 | 7.0 | 0.00 | 0.00 | 0.00 | 29 | 999.5 |
| 20260507021519 | 46 | 360 | 6.0 | 7.0 | 0.00 | 0.00 | 0.00 | 29 | 999.6 |
| 20260507021018 | 46 | 360 | 6.0 | 7.0 | 0.00 | 0.00 | 0.00 | 29 | 999.6 |
| 20260507020517 | 47 | 360 | 6.0 | 7.0 | 0.00 | 0.00 | 0.00 | 29 | 999.7 |
| 20260507020021 | 47 | 360 | 6.0 | 7.0 | 0.00 | 0.00 | 0.00 | 28 | 999.7 |
| 20260507015515 | 48 | 360 | 5.0 | 6.0 | 0.00 | 0.00 | 0.00 | 28 | 999.7 |
| 20260507015013 | 49 | 360 | 5.0 | 7.0 | 0.00 | 0.00 | 0.00 | 28 | 999.7 |
| 20260507014613 | 51 | 360 | 6.0 | 9.0 | 0.00 | 0.00 | 0.00 | 27 | 999.7 |
| 20260507014010 | 51 | 360 | 6.0 | 9.0 | 0.00 | 0.00 | 0.00 | 26 | 999.7 |
| 20260507013509 | 52 | 360 | 6.0 | 11.0 | 0.00 | 0.00 | 0.00 | 26 | 999.7 |
| 20260507013008 | 52 | 360 | 7.0 | 11.0 | 0.00 | 0.00 | 0.00 | 26 | 999.7 |
| 20260507012508 | 52 | 309 | 8.0 | 11.0 | 0.00 | 0.00 | 0.00 | 26 | 999.7 |
| 20260507012007 | 52 | 360 | 7.0 | 11.0 | 0.00 | 0.00 | 0.00 | 26 | 999.7 |
| 20260507011518 | 53 | 319 | 6.0 | 13.0 | 0.00 | 0.00 | 0.00 | 26 | 999.7 |
| 20260507011006 | 53 | 360 | 9.0 | 13.0 | 0.00 | 0.00 | 0.00 | 25 | 999.6 |
| 20260507010508 | 54 | 305 | 9.0 | 13.0 | 0.00 | 0.00 | 0.00 | 24 | 999.6 |
| 20260507010005 | 54 | 305 | 9.0 | 13.0 | 0.00 | 0.00 | 0.00 | 24 | 999.7 |
| 20260507005508 | 54 | 318 | 9.0 | 14.0 | 0.00 | 0.00 | 0.00 | 24 | 999.8 |
| 20260507005005 | 54 | 313 | 11.0 | 14.0 | 0.00 | 0.00 | 0.00 | 23 | 999.9 |
| 20260507004603 | 55 | 300 | 12.0 | 21.0 | 0.00 | 0.00 | 0.00 | 22 | 999.9 |
| 20260507004003 | 55 | 296 | 12.0 | 21.0 | 0.00 | 0.00 | 0.00 | 22 | 999.8 |
| 20260507003503 | 55 | 304 | 7.0 | 12.0 | 0.00 | 0.00 | 0.00 | 22 | 999.9 |
| 20260507003002 | 55 | 301 | 8.0 | 16.0 | 0.00 | 0.00 | 0.00 | 23 | 999.9 |
| 20260507002502 | 55 | 296 | 12.0 | 16.0 | 0.00 | 0.00 | 0.00 | 22 | 1000.0 |
| 20260507002002 | 55 | 313 | 9.0 | 16.0 | 0.00 | 0.00 | 0.00 | 23 | 1000.0 |
| 20260507001502 | 55 | 278 | 9.0 | 16.0 | 0.00 | 0.00 | 0.00 | 22 | 1000.1 |
| 20260507001002 | 55 | 307 | 11.0 | 15.0 | 0.00 | 0.00 | 0.00 | 22 | 1000.1 |
| 20260507000602 | 55 | 329 | 6.0 | 15.0 | 0.00 | 0.00 | 0.00 | 22 | 1000.0 |
| 20260507000100 | 55 | 317 | 9.0 | 22.0 | 0.00 | 0.00 | 0.00 | 23 | 1000.3 |
| 20260506235600 | 55 | 313 | 16.0 | 22.0 | 0.00 | 0.00 | 0.00 | 23 | 1000.2 |
| 20260506235102 | 55 | 296 | 15.0 | 22.0 | 0.00 | 0.00 | 0.00 | 23 | 1000.3 |
| 20260506234607 | 56 | 293 | 9.0 | 20.0 | 0.00 | 0.00 | 0.00 | 23 | 1000.2 |
| 20260506233600 | 56 | 283 | 14.0 | 22.0 | 0.00 | 0.00 | 0.00 | 23 | 1000.3 |
| 20260506233100 | 56 | 298 | 14.0 | 22.0 | 0.00 | 0.00 | 0.00 | 23 | 1000.3 |
| 20260506232558 | 56 | 305 | 10.0 | 20.0 | 0.00 | 0.00 | 0.00 | 22 | 1000.2 |
| 20260506232102 | 56 | 301 | 12.0 | 20.0 | 0.00 | 0.00 | 0.00 | 22 | 1000.3 |
| 20260506231559 | 56 | 319 | 13.0 | 18.0 | 0.00 | 0.00 | 0.00 | 23 | 1000.3 |
| 20260506231059 | 56 | 261 | 12.0 | 18.0 | 0.00 | 0.00 | 0.00 | 23 | 1000.3 |
| 20260506230558 | 56 | 288 | 11.0 | 16.0 | 0.00 | 0.00 | 0.00 | 23 | 1000.4 |
| 20260506230104 | 56 | 255 | 12.0 | 16.0 | 0.00 | 0.00 | 0.00 | 23 | 1000.4 |
| 20260506225557 | 56 | 234 | 9.0 | 20.0 | 0.00 | 0.00 | 0.00 | 23 | 1000.4 |
| 20260506225057 | 56 | 236 | 10.0 | 20.0 | 0.00 | 0.00 | 0.00 | 22 | 1000.6 |
| 20260506224601 | 56 | 271 | 13.0 | 22.0 | 0.00 | 0.00 | 0.00 | 22 | 1000.6 |
| 20260506223557 | 55 | 310 | 11.0 | 22.0 | 0.00 | 0.00 | 0.00 | 22 | 1000.6 |
| 20260506223057 | 56 | 269 | 11.0 | 19.0 | 0.00 | 0.00 | 0.00 | 23 | 1000.5 |
| 20260506222556 | 56 | 238 | 11.0 | 20.0 | 0.00 | 0.00 | 0.00 | 23 | 1000.7 |
| 20260506222055 | 55 | 236 | 7.0 | 20.0 | 0.00 | 0.00 | 0.00 | 22 | 1000.8 |
| 20260506221555 | 55 | 259 | 14.0 | 21.0 | 0.00 | 0.00 | 0.00 | 23 | 1000.8 |
| 20260506221056 | 55 | 286 | 10.0 | 22.0 | 0.00 | 0.00 | 0.00 | 24 | 1000.8 |
| 20260506220555 | 55 | 278 | 14.0 | 19.0 | 0.00 | 0.00 | 0.00 | 23 | 1000.9 |
| 20260506220057 | 56 | 227 | 13.0 | 19.0 | 0.00 | 0.00 | 0.00 | 23 | 1000.9 |
| 20260506215554 | 56 | 300 | 6.0 | 14.0 | 0.00 | 0.00 | 0.00 | 25 | 1001.0 |
| 20260506215052 | 55 | 264 | 2.0 | 23.0 | 0.00 | 0.00 | 0.00 | 23 | 1001.1 |
| 20260506214552 | 55 | 267 | 9.0 | 21.0 | 0.00 | 0.00 | 0.00 | 24 | 1001.3 |
| 20260506213654 | 55 | 311 | 7.0 | 21.0 | 0.00 | 0.00 | 0.00 | 24 | 1001.5 |
| 20260506213053 | 56 | 304 | 9.0 | 18.0 | 0.00 | 0.00 | 0.00 | 24 | 1001.5 |
| 20260506212552 | 55 | 250 | 8.0 | 15.0 | 0.00 | 0.00 | 0.00 | 25 | 1001.5 |
| 20260506212051 | 55 | 238 | 4.0 | 19.0 | 0.00 | 0.00 | 0.00 | 23 | 1001.7 |
| 20260506211551 | 55 | 273 | 11.0 | 19.0 | 0.00 | 0.00 | 0.00 | 23 | 1001.7 |
| 20260506211050 | 55 | 317 | 7.0 | 13.0 | 0.00 | 0.00 | 0.00 | 24 | 1002.0 |
| 20260506210549 | 54 | 282 | 7.0 | 15.0 | 0.00 | 0.00 | 0.00 | 25 | 1002.0 |
| 20260506210048 | 54 | 298 | 10.0 | 21.0 | 0.00 | 0.00 | 0.00 | 23 | 1002.1 |
| 20260506205547 | 55 | 290 | 13.0 | 21.0 | 0.00 | 0.00 | 0.00 | 23 | 1002.2 |
| 20260506205047 | 54 | 240 | 11.0 | 19.0 | 0.00 | 0.00 | 0.00 | 23 | 1002.3 |
| 20260506204548 | 55 | 264 | 5.0 | 16.0 | 0.00 | 0.00 | 0.00 | 24 | 1002.3 |
| 20260506203544 | 54 | 264 | 14.0 | 22.0 | 0.00 | 0.00 | 0.00 | 24 | 1002.3 |
| 20260506203044 | 53 | 296 | 10.0 | 20.0 | 0.00 | 0.00 | 0.00 | 24 | 1002.5 |
| 20260506202543 | 53 | 241 | 12.0 | 20.0 | 0.00 | 0.00 | 0.00 | 24 | 1002.5 |
| 20260506202042 | 54 | 234 | 7.0 | 19.0 | 0.00 | 0.00 | 0.00 | 23 | 1002.6 |
| 20260506201542 | 53 | 239 | 12.0 | 19.0 | 0.00 | 0.00 | 0.00 | 24 | 1002.6 |
| 20260506201041 | 53 | 293 | 3.0 | 21.0 | 0.00 | 0.00 | 0.00 | 25 | 1002.7 |
| 20260506200542 | 53 | 217 | 6.0 | 21.0 | 0.00 | 0.00 | 0.00 | 25 | 1002.9 |
| 20260506200041 | 53 | 298 | 9.0 | 24.0 | 0.00 | 0.00 | 0.00 | 25 | 1003.0 |
| 20260506195538 | 53 | 284 | 12.0 | 24.0 | 0.00 | 0.00 | 0.00 | 26 | 1003.1 |
| 20260506195037 | 53 | 288 | 11.0 | 22.0 | 0.00 | 0.00 | 0.00 | 26 | 1003.2 |
| 20260506194537 | 53 | 281 | 11.0 | 22.0 | 0.00 | 0.00 | 0.00 | 26 | 1003.2 |
| 20260506193538 | 53 | 227 | 13.0 | 20.0 | 0.00 | 0.00 | 0.00 | 25 | 1003.4 |
| 20260506193036 | 52 | 227 | 13.0 | 20.0 | 0.00 | 0.00 | 0.00 | 26 | 1003.4 |
| 20260506192534 | 51 | 279 | 8.0 | 18.0 | 0.00 | 0.00 | 0.00 | 27 | 1003.5 |
| 20260506192034 | 51 | 251 | 10.0 | 22.0 | 0.00 | 0.00 | 0.00 | 26 | 1003.7 |
| 20260506191534 | 52 | 244 | 15.0 | 22.0 | 0.00 | 0.00 | 0.00 | 26 | 1003.8 |
| 20260506191033 | 51 | 240 | 8.0 | 18.0 | 0.00 | 0.00 | 0.00 | 25 | 1003.9 |
| 20260506190534 | 51 | 323 | 9.0 | 15.0 | 0.00 | 0.00 | 0.00 | 26 | 1004.0 |
| 20260506190037 | 52 | 250 | 9.0 | 19.0 | 0.00 | 0.00 | 0.00 | 26 | 1004.1 |
| 20260506185530 | 51 | 227 | 13.0 | 19.0 | 0.00 | 0.00 | 0.00 | 25 | 1004.2 |
| 20260506185030 | 50 | 295 | 7.0 | 25.0 | 0.00 | 0.00 | 0.00 | 24 | 1004.2 |
| 20260506184535 | 51 | 293 | 10.0 | 21.0 | 0.00 | 0.00 | 0.00 | 27 | 1004.4 |
| 20260506183528 | 50 | 285 | 10.0 | 21.0 | 0.00 | 0.00 | 0.00 | 25 | 1004.5 |
| 20260506183027 | 50 | 337 | 11.0 | 19.0 | 0.00 | 0.00 | 0.00 | 26 | 1004.7 |
| 20260506182527 | 50 | 276 | 15.0 | 21.0 | 0.00 | 0.00 | 0.00 | 26 | 1004.8 |
| 20260506182027 | 50 | 265 | 13.0 | 21.0 | 0.00 | 0.00 | 0.00 | 27 | 1004.9 |
| 20260506181528 | 50 | 298 | 10.0 | 19.0 | 0.00 | 0.00 | 0.00 | 26 | 1005.1 |
| 20260506181027 | 49 | 269 | 9.0 | 16.0 | 0.00 | 0.00 | 0.00 | 27 | 1005.2 |
| 20260506180627 | 48 | 244 | 7.0 | 16.0 | 0.00 | 0.00 | 0.00 | 27 | 1005.2 |
| 20260506180028 | 49 | 250 | 10.0 | 21.0 | 0.00 | 0.00 | 0.00 | 27 | 1005.4 |
| 20260506175524 | 49 | 244 | 13.0 | 21.0 | 0.00 | 0.00 | 0.00 | 25 | 1005.4 |
| 20260506175024 | 49 | 263 | 12.0 | 21.0 | 0.00 | 0.00 | 0.00 | 27 | 1005.5 |
| 20260506174523 | 48 | 290 | 11.0 | 23.0 | 0.00 | 0.00 | 0.00 | 27 | 1005.5 |
| 20260506173524 | 48 | 223 | 8.0 | 15.0 | 0.00 | 0.00 | 0.00 | 27 | 1005.6 |
| 20260506173028 | 48 | 269 | 9.0 | 20.0 | 0.00 | 0.00 | 0.00 | 25 | 1005.8 |
| 20260506172521 | 48 | 281 | 11.0 | 20.0 | 0.00 | 0.00 | 0.00 | 26 | 1005.8 |
| 20260506172021 | 48 | 242 | 12.0 | 19.0 | 0.00 | 0.00 | 0.00 | 26 | 1005.8 |
| 20260506171526 | 48 | 298 | 11.0 | 16.0 | 0.00 | 0.00 | 0.00 | 26 | 1005.8 |
| 20260506171024 | 48 | 248 | 7.0 | 18.0 | 0.00 | 0.00 | 0.00 | 27 | 1005.9 |
| 20260506170521 | 49 | 290 | 13.0 | 19.0 | 0.00 | 0.00 | 0.00 | 26 | 1006.1 |
| 20260506170020 | 48 | 267 | 10.0 | 18.0 | 0.00 | 0.00 | 0.00 | 26 | 1006.2 |
| 20260506165521 | 48 | 272 | 11.0 | 18.0 | 0.00 | 0.00 | 0.00 | 26 | 1006.2 |
| 20260506165019 | 47 | 300 | 8.0 | 19.0 | 0.00 | 0.00 | 0.00 | 28 | 1006.3 |
| 20260506164520 | 47 | 360 | 9.0 | 18.0 | 0.00 | 0.00 | 0.00 | 27 | 1006.3 |
| 20260506163523 | 47 | 360 | 12.0 | 18.0 | 0.00 | 0.00 | 0.00 | 27 | 1006.5 |
| 20260506163027 | 46 | 360 | 8.0 | 18.0 | 0.00 | 0.00 | 0.00 | 27 | 1006.6 |
| 20260506162524 | 47 | 360 | 10.0 | 22.0 | 0.00 | 0.00 | 0.00 | 27 | 1006.6 |
| 20260506162020 | 47 | 303 | 12.0 | 22.0 | 0.00 | 0.00 | 0.00 | 28 | 1006.6 |
| 20260506161518 | 46 | 297 | 8.0 | 19.0 | 0.00 | 0.00 | 0.00 | 30 | 1006.5 |
| 20260506161017 | 46 | 338 | 7.0 | 11.0 | 0.00 | 0.00 | 0.00 | 30 | 1006.7 |
| 20260506160516 | 46 | 360 | 6.0 | 19.0 | 0.00 | 0.00 | 0.00 | 31 | 1006.8 |
| 20260506160016 | 45 | 360 | 10.0 | 19.0 | 0.00 | 0.00 | 0.00 | 30 | 1006.8 |
| 20260506155515 | 46 | 360 | 10.0 | 16.0 | 0.00 | 0.00 | 0.00 | 28 | 1006.8 |
| 20260506155015 | 45 | 360 | 6.0 | 12.0 | 0.00 | 0.00 | 0.00 | 29 | 1006.9 |
| 20260506154514 | 45 | 360 | 7.0 | 14.0 | 0.00 | 0.00 | 0.00 | 32 | 1006.9 |
| 20260506153514 | 45 | 360 | 6.0 | 16.0 | 0.00 | 0.00 | 0.00 | 32 | 1006.9 |
| 20260506153013 | 45 | 360 | 10.0 | 16.0 | 0.00 | 0.00 | 0.00 | 32 | 1007.1 |
| 20260506152513 | 44 | 360 | 7.0 | 15.0 | 0.00 | 0.00 | 0.00 | 32 | 1007.1 |
| 20260506152012 | 44 | 360 | 9.0 | 14.0 | 0.00 | 0.00 | 0.00 | 33 | 1007.3 |
| 20260506151513 | 44 | 279 | 7.0 | 11.0 | 0.00 | 0.00 | 0.00 | 35 | 1007.3 |
| 20260506151016 | 44 | 302 | 7.0 | 11.0 | 0.00 | 0.00 | 0.00 | 35 | 1007.3 |
| 20260506150512 | 43 | 113 | 1.0 | 5.0 | 0.00 | 0.00 | 0.00 | 39 | 1007.5 |
| 20260506150012 | 42 | 113 | 1.0 | 6.0 | 0.00 | 0.00 | 0.00 | 41 | 1007.5 |
| 20260506145512 | 41 | 113 | 1.0 | 8.0 | 0.00 | 0.00 | 0.00 | 43 | 1007.5 |
| 20260506145010 | 40 | 114 | 5.0 | 8.0 | 0.00 | 0.00 | 0.00 | 44 | 1007.5 |
| 20260506144510 | 39 | 119 | 5.0 | 9.0 | 0.00 | 0.00 | 0.00 | 45 | 1007.5 |
| 20260506143510 | 39 | 360 | 6.0 | 9.0 | 0.00 | 0.00 | 0.00 | 44 | 1007.6 |
| 20260506143017 | 39 | 360 | 3.0 | 8.0 | 0.00 | 0.00 | 0.00 | 45 | 1007.7 |
| 20260506142514 | 38 | 360 | 4.0 | 8.0 | 0.00 | 0.00 | 0.00 | 46 | 1007.6 |
| 20260506142010 | 38 | 360 | 5.0 | 7.0 | 0.00 | 0.00 | 0.00 | 45 | 1007.7 |
| 20260506141509 | 38 | 360 | 4.0 | 8.0 | 0.00 | 0.00 | 0.00 | 45 | 1007.7 |
| 20260506141014 | 37 | 360 | 5.0 | 8.0 | 0.00 | 0.00 | 0.00 | 46 | 1007.7 |
| 20260506140509 | 37 | 360 | 5.0 | 7.0 | 0.00 | 0.00 | 0.00 | 46 | 1007.8 |
| 20260506140009 | 37 | 360 | 5.0 | 7.0 | 0.00 | 0.00 | 0.00 | 46 | 1007.7 |
| 20260506135609 | 37 | 360 | 5.0 | 7.0 | 0.00 | 0.00 | 0.00 | 46 | 1007.7 |
| 20260506135009 | 37 | 69 | 6.0 | 7.0 | 0.00 | 0.00 | 0.00 | 46 | 1007.9 |
| 20260506134508 | 37 | 304 | 3.0 | 5.0 | 0.00 | 0.00 | 0.00 | 46 | 1007.9 |
| 20260506133515 | 37 | 360 | 0.0 | 2.0 | 0.00 | 0.00 | 0.00 | 46 | 1007.8 |
| 20260506133109 | 36 | 300 | 0.0 | 5.0 | 0.00 | 0.00 | 0.00 | 46 | 1007.9 |
| 20260506132513 | 35 | 300 | 1.0 | 3.0 | 0.00 | 0.00 | 0.00 | 47 | 1007.9 |
| 20260506132008 | 35 | 300 | 0.0 | 2.0 | 0.00 | 0.00 | 0.00 | 49 | 1007.9 |
| 20260506131508 | 33 | 300 | 0.0 | 4.0 | 0.00 | 0.00 | 0.00 | 50 | 1007.9 |
| 20260506131008 | 33 | 360 | 1.0 | 4.0 | 0.00 | 0.00 | 0.00 | 51 | 1007.8 |
| 20260506130508 | 32 | 360 | 0.0 | 4.0 | 0.00 | 0.00 | 0.00 | 51 | 1007.8 |
| 20260506130008 | 32 | 300 | 1.0 | 3.0 | 0.00 | 0.00 | 0.00 | 51 | 1007.8 |
| 20260506125508 | 32 | 300 | 0.0 | 1.0 | 0.00 | 0.00 | 0.00 | 53 | 1007.7 |
| 20260506125009 | 31 | 360 | 0.0 | 1.0 | 0.00 | 0.00 | 0.00 | 53 | 1007.7 |
| 20260506124506 | 30 | 360 | 0.0 | 0.0 | 0.00 | 0.00 | 0.00 | 55 | 1007.6 |
| 20260506123505 | 28 | 360 | 0.0 | 1.0 | 0.00 | 0.00 | 0.00 | 58 | 1007.6 |
| 20260506123004 | 27 | 360 | 0.0 | 4.0 | 0.00 | 0.00 | 0.00 | 59 | 1007.6 |
| 20260506122504 | 27 | 360 | 1.0 | 4.0 | 0.00 | 0.00 | 0.00 | 58 | 1007.5 |
| 20260506122004 | 26 | 360 | 0.0 | 1.0 | 0.00 | 0.00 | 0.00 | 59 | 1007.4 |
| 20260506121508 | 26 | 360 | 0.0 | 4.0 | 0.00 | 0.00 | 0.00 | 59 | 1007.4 |
| 20260506121003 | 25 | 360 | 0.0 | 5.0 | 0.00 | 0.00 | 0.00 | 61 | 1007.2 |
| 20260506120506 | 24 | 360 | 1.0 | 5.0 | 0.00 | 0.00 | 0.00 | 61 | 1007.3 |
| 20260506120006 | 24 | 360 | 0.0 | 1.0 | 0.00 | 0.00 | 0.00 | 61 | 1007.2 |
| 20260506115502 | 25 | 360 | 0.0 | 6.0 | 0.00 | 0.00 | 0.00 | 60 | 1007.1 |
| 20260506115002 | 25 | 360 | 0.0 | 10.0 | 0.00 | 0.00 | 0.00 | 59 | 1007.1 |
| 20260506114501 | 25 | 360 | 6.0 | 10.0 | 0.00 | 0.00 | 0.00 | 60 | 1006.9 |
| 20260506113502 | 25 | 360 | 6.0 | 8.0 | 0.00 | 0.00 | 0.00 | 60 | 1006.8 |
| 20260506113002 | 25 | 360 | 6.0 | 10.0 | 0.00 | 0.00 | 0.00 | 60 | 1006.8 |
| 20260506112501 | 25 | 360 | 7.0 | 10.0 | 0.00 | 0.00 | 0.00 | 60 | 1006.7 |
| 20260506112001 | 25 | 360 | 9.0 | 10.0 | 0.00 | 0.00 | 0.00 | 61 | 1006.7 |
| 20260506111501 | 25 | 360 | 8.0 | 10.0 | 0.00 | 0.00 | 0.00 | 61 | 1006.7 |
| 20260506111103 | 25 | 360 | 8.0 | 11.0 | 0.00 | 0.00 | 0.00 | 61 | 1006.6 |
| 20260506110600 | 25 | 360 | 8.0 | 11.0 | 0.00 | 0.00 | 0.00 | 60 | 1006.7 |
| 20260506110106 | 25 | 360 | 8.0 | 10.0 | 0.00 | 0.00 | 0.00 | 60 | 1006.6 |
| 20260506105600 | 25 | 360 | 8.0 | 10.0 | 0.00 | 0.00 | 0.00 | 60 | 1006.5 |
| 20260506105502 | 25 | 360 | 8.0 | 10.0 | 0.00 | 0.00 | 0.00 | 60 | 1006.5 |
| 20260506105103 | 25 | 360 | 8.0 | 10.0 | 0.00 | 0.00 | 0.00 | 60 | 1006.6 |
| 20260506104600 | 25 | 360 | 7.0 | 10.0 | 0.00 | 0.00 | 0.00 | 61 | 1006.5 |
| 20260506103558 | 25 | 360 | 8.0 | 9.0 | 0.00 | 0.00 | 0.00 | 61 | 1006.4 |
| 20260506103100 | 25 | 360 | 8.0 | 9.0 | 0.00 | 0.00 | 0.00 | 62 | 1006.5 |
| 20260506102559 | 24 | 360 | 8.0 | 9.0 | 0.00 | 0.00 | 0.00 | 64 | 1006.6 |
| 20260506102058 | 23 | 360 | 7.0 | 8.0 | 0.00 | 0.00 | 0.00 | 65 | 1006.6 |
| 20260506101610 | 23 | 360 | 6.0 | 8.0 | 0.00 | 0.00 | 0.00 | 64 | 1006.6 |
| 20260506101056 | 23 | 360 | 6.0 | 8.0 | 0.00 | 0.00 | 0.00 | 64 | 1006.5 |
| 20260506100555 | 24 | 360 | 6.0 | 8.0 | 0.00 | 0.00 | 0.00 | 63 | 1006.5 |
| 20260506100114 | 24 | 360 | 6.0 | 9.0 | 0.00 | 0.00 | 0.00 | 63 | 1006.5 |
| 20260506095556 | 24 | 360 | 7.0 | 9.0 | 0.00 | 0.00 | 0.00 | 62 | 1006.5 |
| 20260506095053 | 24 | 360 | 7.0 | 8.0 | 0.00 | 0.00 | 0.00 | 62 | 1006.5 |
| 20260506094553 | 24 | 360 | 7.0 | 9.0 | 0.00 | 0.00 | 0.00 | 62 | 1006.6 |
| 20260506093552 | 26 | 360 | 7.0 | 10.0 | 0.00 | 0.00 | 0.00 | 58 | 1006.6 |